Regional Weather Roundup
Issued by NWS

Home | Current Version | Previous Version | Graphics & Text | Print | Product List | Glossary On
Versions: 1 2 3 4 5 6 7 8 9 10 11 12 13 14 15 16 17 18 19 20 21 22 23 24 25 26 27 28
000
ASUS45 KCYS 231210
RWRWY

WYOMING REGIONAL WEATHER ROUNDUP
NATIONAL WEATHER SERVICE CHEYENNE WY
600 AM MDT SUN APR 23 2017

NOTE:  "FAIR" INDICATES FEW OR NO CLOUDS BELOW 12,000 FEET
WITH NO SIGNIFICANT WEATHER AND/OR OBSTRUCTIONS TO VISIBILITY.

WYZ001-231300-
YELLOWSTONE NATIONAL PARK

CITY           SKY/WX    TMP DP  RH WIND       PRES   REMARKS
LK YELLOWSTONE   N/A     26  24  92 CALM      29.99S
6HR MIN TEMP:  25; 6HR MAX TEMP:  29;

W YELLOWSTONE  NOT AVBL

$$
WYZ002>013-054>058-071-098>099-231300-
NORTHERN WYOMING

CITY           SKY/WX    TMP DP  RH WIND       PRES   REMARKS
JACKSON        CLOUDY    30  28  93 N7        29.96F WCI  23
CODY           FAIR      46  30  53 SW10      29.87F
GREYBULL       FAIR      37  34  89 SE3       29.85F
6HR MIN TEMP:  37; 6HR MAX TEMP:  46;

WORLAND        FAIR      41  40  96 S7        29.84F
6HR MIN TEMP:  39; 6HR MAX TEMP:  47;

SHERIDAN       FAIR      35  31  85 CALM      29.83F
6HR MIN TEMP:  33; 6HR MAX TEMP:  40;

BUFFALO        FAIR      45  27  49 W7        29.86S
6HR MIN TEMP:  39; 6HR MAX TEMP:  46;

GILLETTE       FAIR      40  35  83 SE5       29.84F
6HR MIN TEMP:  37; 6HR MAX TEMP:  48;

HULETT         FAIR      46  32  57 SW8       29.86F
NEWCASTLE      FAIR      43  30  61 SE10G21   29.90F

$$
WYZ014>020-022>026-101>103-231300-
CENTRAL WYOMING

CITY           SKY/WX    TMP DP  RH WIND       PRES   REMARKS
BIG PINEY      FAIR      26  24  92 E10       29.98F WCI  16
6HR MIN TEMP:  26; 6HR MAX TEMP:  33;

PINEDALE       FAIR      27  23  86 NW5       30.00F WCI  21
DUBOIS         PTSUNNY   32  21  64 CALM      29.95S
LANDER         FAIR      44  28  53 W3        29.88F
6HR MIN TEMP:  38; 6HR MAX TEMP:  50;

RIVERTON       FAIR      42  33  70 CALM      29.89F
6HR MIN TEMP:  41; 6HR MAX TEMP:  47;

CASPER         FAIR      44  26  49 SW12      29.90F
6HR MIN TEMP:  40; 6HR MAX TEMP:  45;

DOUGLAS        FAIR      38  33  82 SE6       29.91F WCI  33
6HR MIN TEMP:  36; 6HR MAX TEMP:  46;


$$
WYZ021-027>030-104>119-231300-
SOUTHERN WYOMING

CITY           SKY/WX    TMP DP  RH WIND       PRES   REMARKS
EVANSTON       FAIR      39  21  48 E3        29.96F
6HR MIN TEMP:  37; 6HR MAX TEMP:  42;

KEMMERER         N/A     32  27  80 N9        29.99S WCI  24
FORT BRIDGER   FAIR      36  22  56 MISG      30.00F
ROCK SPRINGS   FAIR      38  21  50 SE3       29.97F
6HR MIN TEMP:  36; 6HR MAX TEMP:  44;

DIXON            N/A     35  24  64 CALM      30.06F
RAWLINS        FAIR      41  18  39 CALM      30.00F
6HR MIN TEMP:  34; 6HR MAX TEMP:  45;

SARATOGA       FAIR      39  21  48 SE14      30.02F WCI  31
LARAMIE        FAIR      39  22  50 SW14      30.01F WCI  31
6HR MIN TEMP:  30; 6HR MAX TEMP:  40;

CHEYENNE       FAIR      34  28  79 W3        30.00F
6HR MIN TEMP:  32; 6HR MAX TEMP:  40;

TORRINGTON     FAIR      41  33  73 SE12      29.94F
6HR MIN TEMP:  40; 6HR MAX TEMP:  45;

PINE BLUFFS    FAIR      32  32 100 SW7       30.02S WCI  26

$$




USA.gov is the U.S. government's official web portal to all federal, state and local government web resources and services.